Regional Weather Roundup
Issued by NWS Portland, ME

Current Version | Previous Version | Graphics & Text | Print | Product List | Glossary On
Versions: 1 2 3 4 5 6 7 8 9 10 11 12 13 14 15 16 17 18 19 20 21 22 23 24 25 26 27 28 29 30 31 32 33 34 35 36 37 38 39 40 41 42 43 44 45 46 47 48 49 50
000
ASUS41 KGYX 031310
RWRGYX
WEATHER ROUNDUP FOR MAINE AND NEW HAMPSHIRE
NATIONAL WEATHER SERVICE GRAY ME
900 AM EDT MON AUG 03 2015

MEZ002-005-006-010-012-015-018-020-021-024-026-027-029-031400-
MAINE

CITY           SKY/WX    TMP DP  RH WIND       PRES   REMARKS
PORTLAND       MOSUNNY   73  67  81 S5        29.83F
SANFORD        SUNNY     75  63  64 S8        29.84F
BAR HARBOR     CLOUDY    70  68  94 SW13      29.87S
WISCASSET      SUNNY     74  67  78 SW8       29.86R
ROCKLAND       CLOUDY    66  64  94 S7        29.85S
FRYEBURG       SUNNY     74  65  73 VRB3      29.81F
LEWISTONAUBURN SUNNY     73  63  68 S9        29.82F
AUGUSTA        SUNNY     72  63  73 S7        29.83S
WATERVILLE     SUNNY     72  63  73 S7        29.79F
BANGOR         MOSUNNY   72  62  71 S15       29.83F
GREENVILLE       N/A     66  60  81 VRB6      29.79F
MILLINOCKET    NOT AVBL
HOULTON        SUNNY     72  60  66 VRB7G16   29.79F
PRESQUE ISLE   SUNNY     70  57  64 S12       29.76F
FRENCHVILLE    SUNNY     67  59  75 SE10      29.75S
CARIBOU        SUNNY     70  59  68 S14       29.75F
$$

NHZ002-005-008-009-011-012-014-031400-
NEW HAMPSHIRE

CITY           SKY/WX    TMP DP  RH WIND       PRES   REMARKS
PORTSMOUTH     SUNNY     78  65  62 SW8       29.82F
ROCHESTER      SUNNY     76  65  68 VRB7      29.83S
NASHUA         SUNNY     77  66  68 VRB3      29.83F
MANCHESTER     MOSUNNY   77  64  64 S9        29.82F
CONCORD        SUNNY     76  63  64 SE7       29.82F
LACONIA        SUNNY     73  61  64 SW12      29.81F
PLYMOUTH       FAIR      67  64  89 CALM      29.81F
BERLIN         SUNNY     75  61  61 VRB6      29.78F
WHITEFIELD     SUNNY     75  62  64 NW5       29.77F
JAFFREY        SUNNY     74  62  66 S10       29.86F
KEENE          SUNNY     75  61  60 S9        29.82F
LEBANON        SUNNY     74  61  63 S12       29.78F
MT WASHINGTON  MOSUNNY   55  45  67 SW41G53     N/A
$$

VTZ005-007-008-031400-
VERMONT

CITY           SKY/WX    TMP DP  RH WIND       PRES   REMARKS
ST JOHNSBURY     N/A     71  58  63 MISG      29.74F
MONTPELIER     SUNNY     72  59  63 S9G17     29.79F
BURLINGTON     MOSUNNY   77  60  55 S15G28    29.68F
$$

MAZ007-012-024-CTZ003-RIZ002-NYZ038-NYZ072-031400-
SOUTHERN NEW ENGLAND AND NY

CITY           SKY/WX    TMP DP  RH WIND       PRES   REMARKS
BOSTON         SUNNY     77  67  71 SW10      29.85F
WORCESTER      SUNNY     73  62  68 SW9       29.88S
NANTUCKET      MOSUNNY   76  67  73 S10       29.90R
PROVIDENCE     MOSUNNY   79  66  64 SW9       29.87S
HARTFORD       MOSUNNY   78  65  63 S6        29.83F
ALBANY         MOSUNNY   76  61  59 S12       29.78S
NEW YORK CITY  MOSUNNY   81  60  48 SW10      29.84F
$$

ANZ081-ANZ082-ANZ150-NHZ014-MEZ023>029-031400-
COASTAL MARINE OBSERVATIONS

STATION/POSITION TIME  TEMP    WIND        PRES    WAVE
                       AIR SEA DIR/SP/G            HT/PER
                 (UTC) (F)     (DEG/KT/KT) (MB)    (FT/S)
MOUNT DESERT ROC 1300   63     170/ 19/ 20 1011.9S
MATINICUS ROCK   1200   63     180/ 20/ 20 1011.0S
ISLE OF SHOALS   1200   67     200/ 11/ 12 1010.2S
JEFFREYS LEDGE   1203      65                N/A     3/ 8
CASHES LEDGE BUO 1250   67                 1011.4S   4/ 7
GEORGES BANK BUO 1250   70 66  170/  4/  4 1014.0S   5/ 8
$$

.............KEY..............
   WCI - WIND CHILL
   TC  - TEMPERATURE IN CELSIUS
   VSB - VISIBILITY IN MILES
   HX  - HEAT INDEX
   FAIR- INDICATES FEW OR NO CLOUDS BELOW 12,000 FT, WITH NO
         SIGNIFICANT WEATHER AND/OR OBSTRUCTIONS TO VISIBILITY.




USA.gov is the U.S. government's official web portal to all federal, state and local government web resources and services.